Probability
1 3 3 2 3 5 5 3 2 2 4 6 6 6 6 5 4 4 4 3 1 1 2 2 3 4 6 6 6 6 5 3 1 0 0 0 0 0 0 0 0 0 0
2 4 5 4 5 6 5 3 2 2 3 6 6 6 6 5 4 4 3 3 1 1 1 2 3 4 5 6 6 5 4 3 1 1 0 0 0 0 0 0 0 0 0
4 6 7 6 7 7 5 4 3 2 3 5 7 7 6 6 5 3 2 2 2 1 2 3 3 3 4 4 4 4 3 3 3 2 1 0 0 0 0 0 0 0 0
4 6 7 7 7 6 5 5 4 3 3 5 7 8 7 6 5 4 2 2 1 1 2 3 4 4 4 3 3 2 3 4 3 2 1 0 0 0 0 0 0 0 0
3 5 7 6 5 5 4 4 4 4 6 7 8 9 8 7 6 5 3 2 1 1 2 3 5 5 4 3 2 2 3 4 2 1 0 0 0 0 0 0 0 0 0
2 3 6 7 6 4 4 5 6 7 9 9 9 10 10 9 8 6 4 2 1 1 2 4 5 5 4 2 2 3 3 2 1 0 0 0 0 0 0 0 0 0 0
1 1 4 8 7 5 5 6 8 9 9 8 8 9 10 10 9 8 5 2 1 1 3 4 5 4 3 2 3 3 1 1 0 0 0 0 0 0 0 0 0 0 0
1 0 2 6 6 6 7 7 8 9 8 7 7 8 9 9 9 8 6 4 3 2 3 4 4 4 3 2 3 2 1 0 0 0 0 0 0 0 0 1 1 1 0
0 0 1 2 3 4 6 6 6 7 7 6 7 7 7 6 7 8 6 5 4 4 4 4 4 3 2 2 3 3 1 0 0 0 0 0 0 0 0 1 2 2 2
0 0 0 0 0 1 2 3 4 5 5 6 6 6 5 4 5 6 6 5 6 7 6 4 2 2 1 1 3 3 2 0 0 0 0 0 0 0 1 2 3 3 4
0 0 0 0 0 0 0 1 1 2 4 4 5 5 4 4 5 6 6 5 6 7 5 2 1 0 0 0 1 1 1 0 0 0 0 0 0 1 2 3 3 3 3
0 0 0 0 0 0 0 0 0 1 2 3 3 4 4 4 5 5 4 4 4 3 2 0 0 0 0 0 0 0 0 0 0 0 0 0 0 1 2 2 2 2 1
0 0 0 0 0 0 0 0 0 0 1 1 2 3 4 4 4 3 2 2 1 1 0 0 0 0 0 0 0 0 0 0 0 0 0 0 0 0 1 1 1 1 0
0 0 0 0 0 0 0 0 0 0 0 0 1 3 4 4 3 2 1 0 0 0 0 0 0 0 0 0 0 0 0 0 0 0 0 0 0 0 0 0 0 0 0
0 0 0 0 0 0 0 0 0 0 0 0 1 3 4 4 3 2 1 0 0 0 0 0 0 0 0 0 0 0 0 0 0 0 0 0 0 0 0 0 0 0 0
0 0 0 0 0 0 0 0 0 0 0 1 2 3 4 3 3 2 1 0 0 0 0 0 0 0 0 0 0 0 0 0 0 0 0 0 0 0 1 1 1 1 1
0 0 0 0 0 0 0 0 0 0 0 1 3 3 3 3 3 2 1 0 0 0 0 0 0 0 0 0 0 0 0 0 0 0 0 0 0 0 1 1 1 1 2
0 0 0 0 0 0 0 0 0 0 1 2 3 3 3 4 4 3 1 0 0 0 0 0 0 0 0 0 0 0 0 0 0 0 0 0 0 0 0 0 1 2 3
0 0 0 0 0 0 0 0 1 1 2 3 4 4 4 5 5 4 3 1 1 0 0 0 0 0 0 0 0 0 0 0 0 0 0 0 0 0 0 0 0 1 1
1 1 1 1 1 2 2 2 3 4 5 5 5 4 5 6 6 5 3 3 2 1 0 0 0 0 0 0 0 0 0 0 0 0 0 0 0 0 0 0 0 0 0
1 2 2 2 4 5 5 5 5 6 6 5 4 4 5 6 6 5 4 3 3 2 1 0 0 0 0 0 0 0 0 0 1 1 1 1 1 1 1 1 1 1 1
2 3 4 5 6 6 6 6 6 5 4 4 3 3 4 5 6 6 4 3 2 2 1 1 1 1 0 0 0 0 0 0 1 2 2 2 2 2 1 1 1 2 2
3 4 6 8 8 8 7 7 6 5 4 4 4 4 4 4 6 6 5 4 2 1 1 1 2 2 1 0 0 0 0 0 1 1 2 3 2 1 0 0 1 1 1
5 5 8 10 11 10 9 8 6 6 6 6 6 5 4 4 5 7 7 6 3 1 1 2 3 3 1 0 0 0 0 0 0 1 1 1 1 0 0 0 0 0 0
5 5 7 10 11 11 10 9 7 6 7 7 8 7 5 4 6 7 8 8 5 3 4 4 5 3 1 0 0 0 0 0 0 0 0 0 0 0 0 0 0 0 0
5 5 7 10 11 11 10 9 7 6 7 8 9 8 6 5 6 8 9 9 6 5 6 6 6 4 2 1 0 0 0 0 0 0 0 0 0 0 0 0 0 0 0
Wind_Speed
0 0 3 5 6 7 8 7 7 9 11 13 13 13 13 12 12 12 12 13 12 12 12 12 12 11 11 11 11 11 12 11 11 11 10 10 10 10 10 10 9 7 10
2 2 4 6 7 8 8 8 8 10 11 13 13 12 12 11 11 11 11 12 12 12 12 11 11 11 11 11 11 11 11 11 10 10 9 9 9 10 9 9 8 6 9
3 2 4 6 7 8 8 9 10 11 12 12 12 11 11 10 10 10 11 11 11 11 11 11 11 11 11 10 11 11 10 10 9 9 8 5 6 8 9 9 8 8 8
3 2 3 6 7 8 8 9 10 11 11 11 10 10 10 9 9 10 10 10 10 11 11 11 11 11 11 10 10 10 10 10 9 8 4 4 4 7 7 8 8 8 8
3 2 3 7 7 8 8 9 9 9 10 9 9 8 8 8 8 9 9 10 10 10 10 10 10 10 10 10 9 9 9 9 8 6 4 3 3 6 7 7 7 7 7
3 2 2 7 7 7 8 8 8 9 9 8 8 7 7 8 8 8 8 9 9 9 9 9 9 9 9 9 9 8 8 7 6 4 3 3 2 5 6 7 7 7 7
3 2 2 7 7 7 7 7 8 8 8 8 7 7 7 7 7 7 7 8 8 8 8 8 8 9 9 9 8 7 6 6 4 3 2 2 3 6 6 6 6 6 6
3 2 2 5 7 7 7 7 7 7 7 7 6 7 7 7 7 6 7 8 8 8 8 8 8 8 8 8 7 7 6 5 4 3 2 2 4 5 6 6 5 5 6
3 3 2 2 3 5 6 6 6 6 6 6 6 6 7 7 6 6 6 7 7 7 7 7 7 8 8 7 7 6 6 5 3 2 2 1 3 5 6 5 5 5 5
3 2 2 2 2 2 2 4 4 5 5 5 5 6 6 6 6 5 6 6 6 6 6 6 6 7 6 6 6 5 5 4 2 2 1 2 4 5 5 5 4 4 5
2 1 1 2 2 2 1 2 2 3 4 4 4 5 4 3 3 3 5 6 6 6 6 6 6 6 5 4 4 4 3 2 2 1 1 3 4 4 4 4 4 4 5
2 2 1 1 1 1 1 1 1 2 2 3 2 2 2 3 2 3 4 5 5 5 6 5 5 4 3 2 2 2 1 2 1 1 2 3 4 4 4 4 4 5 5
3 2 2 2 2 2 1 1 1 1 1 2 2 2 2 2 2 2 2 2 3 3 3 3 3 2 2 1 1 1 2 2 1 1 2 3 4 4 4 4 4 5 5
3 3 2 2 2 2 1 1 1 1 1 1 1 2 2 2 2 2 1 1 2 1 2 1 1 2 2 1 1 1 1 1 1 1 2 4 4 4 4 5 5 5 6
3 3 3 3 3 2 2 1 1 1 1 1 1 2 2 2 2 1 1 1 1 1 1 1 1 1 1 1 1 1 1 1 1 2 2 4 4 4 5 5 5 6 6
4 3 3 3 3 3 3 2 1 2 1 2 1 1 2 2 2 1 1 1 1 1 1 1 1 1 0 0 0 1 1 1 2 2 2 3 4 5 5 5 5 5 6
4 3 3 3 3 3 4 3 2 2 2 2 1 2 2 2 2 2 1 1 1 1 1 1 1 1 1 0 0 1 1 1 2 2 2 2 2 4 5 5 6 6 6
4 3 3 3 4 3 3 3 2 2 2 2 1 2 2 2 2 2 1 1 1 1 1 1 1 1 0 0 1 1 1 1 2 2 2 2 2 2 3 5 5 5 6
4 4 3 3 4 4 4 3 2 2 2 1 1 1 2 2 2 2 1 1 1 1 1 1 1 0 0 0 1 1 1 1 2 2 3 3 2 2 2 3 4 5 6
4 4 4 3 4 4 3 3 2 2 2 1 1 1 1 1 2 2 2 1 1 1 1 1 1 1 0 1 1 1 1 2 2 2 2 2 1 2 2 2 2 3 6
3 3 3 3 3 3 3 2 2 1 1 1 1 1 1 1 2 2 1 1 1 1 1 1 1 1 0 0 1 2 2 1 1 1 1 1 2 2 2 2 2 2 2
4 4 3 3 3 3 2 2 2 2 1 1 0 1 1 1 2 2 2 1 1 1 0 0 1 1 0 1 1 1 2 3 2 1 1 1 2 1 2 3 2 3 2
5 5 4 3 3 3 3 2 2 2 2 1 1 0 0 1 1 1 2 2 1 1 1 1 1 2 1 0 1 2 1 1 2 2 1 1 1 1 2 2 3 3 3
6 4 4 4 3 3 3 3 3 3 2 2 1 1 0 0 1 1 2 2 2 1 1 2 1 1 2 1 1 1 1 2 1 2 2 1 2 2 2 2 3 3 3
5 5 4 4 3 3 3 3 3 2 2 1 1 1 0 0 0 1 1 1 1 1 2 2 1 2 2 2 1 1 1 1 1 1 2 3 2 2 2 3 2 2 3
4 5 5 5 3 3 3 3 3 3 3 2 1 1 1 1 1 1 1 1 2 2 2 2 2 2 2 2 1 2 2 2 2 2 3 2 3 3 2 2 2 2 2
Wind_Direction
20 192 138 114 115 122 121 117 119 122 130 135 136 137 138 137 139 141 143 142 143 143 143 143 142 141 139 140 137 135 135 135 134 135 133 133 134 131 130 127 125 125 132
133 126 126 112 110 114 118 115 113 116 121 128 131 134 137 137 138 141 143 146 148 147 146 147 146 145 142 140 138 136 136 138 139 140 136 137 136 133 131 130 130 132 134
110 112 123 113 111 112 113 109 109 113 116 121 126 132 136 138 140 143 146 147 149 150 152 153 152 149 145 143 142 138 138 138 140 138 131 123 131 134 137 137 138 136 136
112 109 122 120 118 114 112 110 109 112 115 119 123 127 133 138 143 146 149 151 152 154 158 158 156 154 149 147 145 141 141 142 141 133 117 121 131 139 144 145 143 143 144
92 87 130 128 124 118 115 114 115 114 115 117 122 125 130 133 139 145 150 150 152 156 159 158 155 154 148 145 142 141 144 145 142 133 120 125 131 153 156 155 150 150 153
101 98 136 133 128 122 119 118 116 115 115 117 120 121 126 130 135 139 146 149 153 155 156 156 153 150 144 141 137 139 142 143 136 129 129 141 156 172 169 166 162 159 160
111 100 126 132 129 126 124 122 122 120 119 118 116 116 120 126 133 137 144 148 151 153 152 149 144 144 142 139 137 140 143 145 131 127 136 158 181 183 179 175 171 171 169
123 112 109 140 132 129 128 125 123 121 121 120 118 114 114 117 125 133 144 151 153 156 155 152 147 148 145 142 145 151 149 146 134 140 149 175 190 188 185 181 180 186 182
97 98 82 107 128 132 127 121 120 119 117 116 112 109 108 111 116 123 131 138 142 150 154 156 152 152 150 152 153 156 157 158 139 145 174 187 200 197 196 192 191 195 187
89 84 81 79 86 95 109 128 126 119 114 112 109 104 103 104 106 108 111 125 133 135 140 143 143 146 149 155 159 160 162 162 141 156 174 210 213 205 199 191 190 187 177
113 94 93 100 99 97 106 126 114 108 103 101 98 99 90 70 72 82 101 112 117 121 127 131 135 135 130 136 149 150 141 133 138 167 191 215 212 208 201 192 189 179 177
166 163 143 142 130 115 134 99 71 74 72 73 71 76 75 69 66 78 89 101 99 99 99 106 116 109 103 96 111 115 124 132 136 183 204 215 218 214 204 203 202 195 195
177 173 163 165 149 134 133 111 88 78 80 83 85 82 85 80 68 60 61 71 71 75 70 73 72 81 89 96 96 116 137 137 155 210 213 210 218 221 214 211 212 206 204
153 178 169 166 159 170 157 125 115 110 105 103 98 100 100 92 80 73 71 71 71 73 79 78 84 85 95 111 126 143 144 158 170 212 225 224 226 223 225 224 219 213 212
160 176 172 166 177 181 160 160 130 127 125 115 102 108 119 116 108 100 97 88 92 95 96 87 87 99 117 135 167 162 167 176 205 225 241 242 239 230 234 231 226 221 215
171 174 166 163 170 165 160 152 143 136 127 109 111 123 122 124 131 125 109 89 84 96 97 101 106 117 128 137 196 190 199 211 214 231 239 247 244 238 244 240 235 228 223
167 161 157 155 149 155 154 151 146 139 129 130 139 133 130 139 137 131 120 94 75 90 89 75 65 77 96 115 194 242 221 227 221 237 250 257 258 247 247 247 242 235 232
153 152 158 150 140 145 141 137 137 136 133 141 136 127 134 146 138 130 126 111 77 85 87 77 47 46 63 68 278 269 246 240 239 245 250 252 250 249 252 250 248 242 244
159 153 146 134 134 137 132 121 116 113 117 121 121 128 136 142 139 132 128 109 92 90 85 87 71 56 98 292 274 264 252 242 242 244 245 249 242 242 244 254 252 251 251
155 150 146 137 131 128 121 106 93 87 89 93 97 108 120 126 127 128 123 108 101 98 79 70 79 64 262 261 295 311 290 255 244 245 253 261 253 245 239 250 258 254 249
151 153 157 148 141 129 117 118 117 113 97 90 109 119 144 141 135 135 134 120 122 153 186 161 129 95 349 132 48 343 333 314 257 252 254 254 265 259 247 244 243 242 247
171 174 171 162 152 149 145 139 136 131 134 138 91 70 133 156 159 164 159 161 162 178 209 193 143 144 261 105 118 51 342 343 348 308 277 252 265 272 265 256 244 236 243
189 185 179 169 160 159 147 120 99 81 62 61 41 359 336 151 164 169 164 166 180 182 211 223 195 179 210 256 179 157 158 274 317 325 303 288 288 272 270 266 257 248 244
195 176 161 154 151 153 148 147 152 159 177 199 189 202 279 144 174 174 165 172 185 185 204 225 197 189 180 222 242 208 194 185 207 313 319 309 297 282 277 277 271 258 251
177 163 157 148 146 139 142 153 158 171 179 155 136 142 221 305 240 206 185 178 190 202 211 212 182 187 188 193 203 200 185 182 194 209 286 312 319 295 280 278 279 274 263
153 153 152 152 159 154 154 161 167 176 170 162 179 188 241 286 302 269 203 193 201 208 214 215 205 200 209 202 202 201 187 187 200 199 231 269 294 297 302 289 278 278 274